Weather History for Miami, FL

Change the Weather History Date:

Monday, August 26, 2013

  Actual Average Record
Temperature  
Mean Temperature 82 °F 84 °F  
Max Temperature 87 °F 91 °F 94 °F (1954)
Min Temperature 76 °F 77 °F 70 °F (1948)
Degree Days  
Heating Degree Days 0 0  
Month to date heating degree days 0 0  
Since 1 June heating degree days 0 0  
Since 1 July heating degree days 0 0  
Cooling Degree Days 17 19  
Month to date cooling degree days 507 502  
Year to date cooling degree days 3051 2982  
Since 1 June cooling degree days 1606 1626  
Growing Degree Days 31 (Base 50)    
Moisture  
Dew Point 73 °F    
Average Humidity 79    
Maximum Humidity 94    
Minimum Humidity 63    
Precipitation  
Precipitation T in 0.31 in 2.67 in (2006)
Month to date precipitation 3.54 7.30  
Year to date precipitation 41.79 38.82  
Snow  
Snow 0.00 in - - ()
Month to date snowfall 0.0  
Since 1 June snowfall 0.0  
Since 1 July snowfall 0.0  
Snow Depth 0.00 in    
Sea Level Pressure  
Sea Level Pressure 30.07 in    
Wind  
Wind Speed 4 mph (East)    
Max Wind Speed 18 mph    
Max Gust Speed 28 mph    
Visibility 10 miles    
Events Rain , Thunderstorm    
T = Trace of Precipitation, MM = Missing Value Source: NWS Daily Summary

Daily Weather History Graph

Daily Weather History Graph

Search for Another Location

Airport:

Trip Planner

Search our weather history database for the weather conditions in past years. The results will help you decide how hot, cold, wet, or windy it might be!

Date:

Astronomy

Aug. 26, 2013 Rise Set
Actual Time 6:59 AM EDT 7:46 PM EDT
Civil Twilight 6:35 AM EDT 8:09 PM EDT
Nautical Twilight 6:07 AM EDT 8:37 PM EDT
Astronomical Twilight 5:39 AM EDT 9:05 PM EDT
Moon 11:37 PM EDT (8/26) 12:19 PM EDT (8/26)
Length of Visible Light 13h 34m
Length of Day
12h 47m
Waning Gibbous, 67% of the Moon is Illuminated
Aug 26
Waning Gibbous
Aug 28
Last Quarter
Sep 5
New
Sep 12
First Quarter
Sep 19
Full

Hourly Weather History & Observations

Time (EDT) Temp. Heat Index Dew Point Humidity Pressure Visibility Wind Dir Wind Speed Gust Speed Precip Events Conditions
12:20 AM 77.0 °F - 73.4 °F 89% 30.13 in 10.0 mi ESE 6.9 mph - 0.00 in   Overcast
12:53 AM 78.1 °F - 73.9 °F 87% 30.10 in 10.0 mi East 6.9 mph - 0.00 in   Overcast
1:53 AM 75.9 °F - 73.9 °F 94% 30.09 in 10.0 mi East 3.5 mph - N/A   Overcast
2:53 AM 78.1 °F - 72.0 °F 81% 30.08 in 10.0 mi East 6.9 mph - N/A   Mostly Cloudy
3:53 AM 79.0 °F - 71.1 °F 77% 30.06 in 10.0 mi East 3.5 mph - N/A   Overcast
4:53 AM 80.1 °F 85.1 °F 75.0 °F 85% 30.04 in 10.0 mi East 9.2 mph - N/A   Overcast
5:53 AM 80.1 °F 85.1 °F 75.0 °F 85% 30.05 in 10.0 mi East 3.5 mph - N/A   Overcast
6:53 AM 80.1 °F 85.1 °F 75.0 °F 85% 30.06 in 10.0 mi ENE 3.5 mph - N/A   Overcast
7:53 AM 81.0 °F 87.3 °F 75.9 °F 85% 30.08 in 10.0 mi Calm Calm - N/A   Overcast
8:53 AM 82.9 °F 90.8 °F 75.9 °F 79% 30.08 in 10.0 mi Variable 4.6 mph - N/A   Mostly Cloudy
9:53 AM 84.9 °F 93.3 °F 75.0 °F 72% 30.09 in 10.0 mi NNE 5.8 mph - N/A   Mostly Cloudy
10:53 AM 86.0 °F 93.8 °F 73.9 °F 67% 30.11 in 10.0 mi ESE 5.8 mph - 0.00 in   Mostly Cloudy
11:53 AM 84.9 °F 90.7 °F 72.0 °F 65% 30.09 in 10.0 mi SE 4.6 mph - N/A   Mostly Cloudy
12:53 PM 86.0 °F 93.0 °F 73.0 °F 65% 30.07 in 10.0 mi ESE 5.8 mph - 0.00 in   Mostly Cloudy
1:40 PM 82.4 °F 88.2 °F 73.4 °F 74% 30.07 in 10.0 mi SSE 9.2 mph 18.4 mph N/A Thunderstorm Thunderstorm
1:53 PM 80.1 °F 84.2 °F 73.0 °F 79% 30.09 in 10.0 mi East 10.4 mph - 0.00 in Rain , Thunderstorm Light Thunderstorms and Rain
2:10 PM 78.8 °F - 71.6 °F 78% 30.07 in 10.0 mi NW 6.9 mph - 0.00 in Rain , Thunderstorm Light Thunderstorms and Rain
2:48 PM 75.2 °F - 71.6 °F 89% 30.06 in 10.0 mi Calm Calm - 0.00 in Rain Light Rain
2:53 PM 77.0 °F - 72.0 °F 84% 30.08 in 10.0 mi West 5.8 mph - 0.00 in   Overcast
3:53 PM 79.0 °F - 73.0 °F 82% 30.05 in 10.0 mi Calm Calm - N/A   Mostly Cloudy
4:53 PM 82.0 °F 86.3 °F 71.1 °F 69% 30.03 in 10.0 mi Calm Calm - N/A   Mostly Cloudy
5:53 PM 82.9 °F 85.8 °F 68.0 °F 60% 30.05 in 10.0 mi East 8.1 mph - N/A   Mostly Cloudy
6:53 PM 82.0 °F 86.3 °F 71.1 °F 69% 30.04 in 10.0 mi ESE 9.2 mph - N/A   Mostly Cloudy
7:53 PM 81.0 °F 84.9 °F 71.1 °F 72% 30.04 in 10.0 mi ESE 3.5 mph - N/A   Mostly Cloudy
8:53 PM 81.0 °F 85.2 °F 72.0 °F 74% 30.05 in 10.0 mi East 4.6 mph - N/A   Mostly Cloudy
9:06 PM 80.6 °F 85.4 °F 73.4 °F 79% 30.05 in 6.0 mi ESE 4.6 mph - 0.00 in Rain Light Rain
9:22 PM 80.6 °F 85.4 °F 73.4 °F 79% 30.05 in 10.0 mi Calm Calm - 0.00 in Rain Light Rain
9:53 PM 80.1 °F 84.2 °F 73.0 °F 79% 30.04 in 10.0 mi Calm Calm - 0.00 in   Overcast
10:53 PM 80.1 °F 84.2 °F 73.0 °F 79% 30.05 in 10.0 mi ESE 4.6 mph - N/A   Overcast
11:53 PM 78.1 °F - 73.0 °F 84% 30.04 in 10.0 mi Calm Calm - N/A   Overcast